Time,TemperatureF,DewpointF,PressureIn,WindDirection,WindDirectionDegrees,WindSpeedMPH,WindSpeedGustMPH,Humidity,HourlyPrecipIn,Conditions,Clouds,dailyrainin,SoftwareType,DateUTC
2013-11-06 00:01:00,36.2,32.4,30.50,South,180,0.0,0.0,86,0.00,,,0.00,WUHU216DAVISVP2,2013-11-06 05:01:00,
2013-11-06 00:02:00,36.2,32.4,30.50,South,180,0.0,0.0,86,0.00,,,0.00,WUHU216DAVISVP2,2013-11-06 05:02:00,
2013-11-06 00:07:00,36.4,32.6,30.50,South,180,0.0,0.0,86,0.00,,,0.00,WUHU216DAVISVP2,2013-11-06 05:07:00,
2013-11-06 00:12:00,36.5,32.7,30.50,South,180,0.0,0.0,86,0.00,,,0.00,WUHU216DAVISVP2,2013-11-06 05:12:00,
2013-11-06 00:17:00,36.5,32.4,30.50,South,180,0.0,0.0,85,0.00,,,0.00,WUHU216DAVISVP2,2013-11-06 05:17:00,
2013-11-06 00:22:00,36.6,32.5,30.50,South,180,0.0,0.0,85,0.00,,,0.00,WUHU216DAVISVP2,2013-11-06 05:22:00,
2013-11-06 00:27:00,36.7,32.6,30.50,South,180,0.0,0.0,85,0.00,,,0.00,WUHU216DAVISVP2,2013-11-06 05:27:00,
2013-11-06 00:32:00,36.8,32.7,30.50,South,180,0.0,0.0,85,0.00,,,0.00,WUHU216DAVISVP2,2013-11-06 05:32:00,
2013-11-06 00:37:00,36.9,32.8,30.50,South,180,0.0,0.0,85,0.00,,,0.00,WUHU216DAVISVP2,2013-11-06 05:37:00,
2013-11-06 00:42:00,36.9,32.8,30.50,South,180,0.0,1.0,85,0.00,,,0.00,WUHU216DAVISVP2,2013-11-06 05:42:00,
2013-11-06 00:47:00,37.0,32.9,30.50,South,180,0.0,1.0,85,0.00,,,0.00,WUHU216DAVISVP2,2013-11-06 05:47:00,
2013-11-06 00:52:00,37.1,33.0,30.50,South,180,0.0,1.0,85,0.00,,,0.00,WUHU216DAVISVP2,2013-11-06 05:52:00,
2013-11-06 00:57:00,37.1,33.0,30.50,South,180,0.0,1.0,85,0.00,,,0.00,WUHU216DAVISVP2,2013-11-06 05:57:00,
2013-11-06 01:02:00,37.3,33.2,30.50,South,180,0.0,0.0,85,0.00,,,0.00,WUHU216DAVISVP2,2013-11-06 06:02:00,
2013-11-06 01:07:00,37.4,33.3,30.49,South,180,0.0,0.0,85,0.00,,,0.00,WUHU216DAVISVP2,2013-11-06 06:07:00,
2013-11-06 01:12:00,37.5,33.4,30.49,South,180,0.0,0.0,85,0.00,,,0.00,WUHU216DAVISVP2,2013-11-06 06:12:00,
2013-11-06 01:17:00,37.5,33.4,30.49,South,180,0.0,0.0,85,0.00,,,0.00,WUHU216DAVISVP2,2013-11-06 06:17:00,
2013-11-06 01:22:00,37.5,33.4,30.49,South,180,0.0,0.0,85,0.00,,,0.00,WUHU216DAVISVP2,2013-11-06 06:22:00,
2013-11-06 01:27:00,37.4,33.3,30.49,South,180,0.0,0.0,85,0.00,,,0.00,WUHU216DAVISVP2,2013-11-06 06:27:00,
2013-11-06 01:32:00,37.4,33.6,30.49,South,180,0.0,0.0,86,0.00,,,0.00,WUHU216DAVISVP2,2013-11-06 06:32:00,
2013-11-06 01:37:00,37.5,33.7,30.49,South,180,0.0,0.0,86,0.00,,,0.00,WUHU216DAVISVP2,2013-11-06 06:37:00,
2013-11-06 01:42:00,37.5,33.4,30.49,South,180,0.0,0.0,85,0.00,,,0.00,WUHU216DAVISVP2,2013-11-06 06:42:00,
2013-11-06 01:47:00,37.5,33.4,30.48,South,180,0.0,0.0,85,0.00,,,0.00,WUHU216DAVISVP2,2013-11-06 06:47:00,
2013-11-06 01:52:00,37.6,33.8,30.48,South,180,0.0,0.0,86,0.00,,,0.00,WUHU216DAVISVP2,2013-11-06 06:52:00,
2013-11-06 01:57:00,37.7,33.6,30.49,South,180,0.0,0.0,85,0.00,,,0.00,WUHU216DAVISVP2,2013-11-06 06:57:00,
2013-11-06 02:02:00,37.9,33.8,30.49,South,180,0.0,0.0,85,0.00,,,0.00,WUHU216DAVISVP2,2013-11-06 07:02:00,
2013-11-06 02:07:00,38.0,33.9,30.49,South,180,0.0,0.0,85,0.00,,,0.00,WUHU216DAVISVP2,2013-11-06 07:07:00,
2013-11-06 02:12:00,38.2,34.1,30.49,South,180,0.0,0.0,85,0.00,,,0.00,WUHU216DAVISVP2,2013-11-06 07:12:00,
2013-11-06 02:17:00,38.2,34.1,30.48,South,180,0.0,0.0,85,0.00,,,0.00,WUHU216DAVISVP2,2013-11-06 07:17:00,
2013-11-06 02:22:00,38.3,34.2,30.48,South,180,0.0,0.0,85,0.00,,,0.00,WUHU216DAVISVP2,2013-11-06 07:22:00,
2013-11-06 02:27:00,38.4,34.3,30.47,South,180,0.0,0.0,85,0.00,,,0.00,WUHU216DAVISVP2,2013-11-06 07:27:00,
2013-11-06 02:32:00,38.3,34.2,30.47,South,180,0.0,0.0,85,0.00,,,0.00,WUHU216DAVISVP2,2013-11-06 07:32:00,
2013-11-06 02:37:00,38.3,34.2,30.47,South,180,0.0,0.0,85,0.00,,,0.00,WUHU216DAVISVP2,2013-11-06 07:37:00,
2013-11-06 02:42:00,38.2,34.4,30.47,South,180,0.0,0.0,86,0.00,,,0.00,WUHU216DAVISVP2,2013-11-06 07:42:00,
2013-11-06 02:47:00,38.2,34.4,30.47,South,180,0.0,0.0,86,0.00,,,0.00,WUHU216DAVISVP2,2013-11-06 07:47:00,
2013-11-06 02:52:00,38.2,34.4,30.47,South,180,0.0,0.0,86,0.00,,,0.00,WUHU216DAVISVP2,2013-11-06 07:52:00,
2013-11-06 02:57:00,38.2,34.4,30.47,South,180,0.0,0.0,86,0.00,,,0.00,WUHU216DAVISVP2,2013-11-06 07:57:00,
2013-11-06 03:02:00,38.1,34.3,30.46,South,180,0.0,0.0,86,0.00,,,0.00,WUHU216DAVISVP2,2013-11-06 08:02:00,
2013-11-06 03:07:00,38.1,34.3,30.46,South,180,0.0,0.0,86,0.00,,,0.00,WUHU216DAVISVP2,2013-11-06 08:07:00,
2013-11-06 03:12:00,38.0,34.2,30.45,South,180,0.0,0.0,86,0.00,,,0.00,WUHU216DAVISVP2,2013-11-06 08:12:00,
2013-11-06 03:17:00,37.9,34.1,30.45,South,180,0.0,0.0,86,0.00,,,0.00,WUHU216DAVISVP2,2013-11-06 08:17:00,
2013-11-06 03:22:00,37.9,34.3,30.46,South,180,0.0,0.0,87,0.00,,,0.00,WUHU216DAVISVP2,2013-11-06 08:22:00,
2013-11-06 03:27:00,37.9,34.3,30.45,South,180,0.0,0.0,87,0.00,,,0.00,WUHU216DAVISVP2,2013-11-06 08:27:00,
2013-11-06 03:32:00,37.9,34.3,30.45,South,180,0.0,0.0,87,0.00,,,0.00,WUHU216DAVISVP2,2013-11-06 08:32:00,
2013-11-06 03:37:00,38.0,34.4,30.45,South,180,0.0,0.0,87,0.00,,,0.00,WUHU216DAVISVP2,2013-11-06 08:37:00,
2013-11-06 03:42:00,38.0,34.4,30.45,South,180,0.0,0.0,87,0.00,,,0.00,WUHU216DAVISVP2,2013-11-06 08:42:00,
2013-11-06 03:47:00,38.0,34.4,30.45,South,180,0.0,0.0,87,0.00,,,0.00,WUHU216DAVISVP2,2013-11-06 08:47:00,
2013-11-06 03:52:00,38.0,34.4,30.45,South,180,0.0,0.0,87,0.00,,,0.00,WUHU216DAVISVP2,2013-11-06 08:52:00,
2013-11-06 03:57:00,37.9,34.3,30.45,South,180,0.0,0.0,87,0.00,,,0.00,WUHU216DAVISVP2,2013-11-06 08:57:00,
2013-11-06 04:02:00,37.7,34.1,30.45,South,180,0.0,0.0,87,0.00,,,0.00,WUHU216DAVISVP2,2013-11-06 09:02:00,
2013-11-06 04:07:00,37.6,34.0,30.45,South,180,0.0,0.0,87,0.00,,,0.00,WUHU216DAVISVP2,2013-11-06 09:07:00,
2013-11-06 04:12:00,37.5,34.2,30.45,South,180,0.0,0.0,88,0.00,,,0.00,WUHU216DAVISVP2,2013-11-06 09:12:00,
2013-11-06 04:17:00,37.4,34.1,30.45,South,180,0.0,0.0,88,0.00,,,0.00,WUHU216DAVISVP2,2013-11-06 09:17:00,
2013-11-06 04:22:00,37.3,34.0,30.45,South,180,0.0,0.0,88,0.00,,,0.00,WUHU216DAVISVP2,2013-11-06 09:22:00,
2013-11-06 04:27:00,37.2,34.2,30.45,South,180,0.0,0.0,89,0.00,,,0.00,WUHU216DAVISVP2,2013-11-06 09:27:00,
2013-11-06 04:32:00,37.2,34.2,30.45,South,180,0.0,0.0,89,0.00,,,0.00,WUHU216DAVISVP2,2013-11-06 09:32:00,
2013-11-06 04:37:00,37.1,34.1,30.44,South,180,0.0,0.0,89,0.00,,,0.00,WUHU216DAVISVP2,2013-11-06 09:37:00,
2013-11-06 04:42:00,36.9,33.9,30.44,South,180,0.0,0.0,89,0.00,,,0.00,WUHU216DAVISVP2,2013-11-06 09:42:00,
2013-11-06 04:47:00,36.8,33.8,30.44,South,180,0.0,0.0,89,0.00,,,0.00,WUHU216DAVISVP2,2013-11-06 09:47:00,
2013-11-06 04:52:00,36.7,33.7,30.45,South,180,0.0,0.0,89,0.00,,,0.00,WUHU216DAVISVP2,2013-11-06 09:52:00,
2013-11-06 04:57:00,36.7,33.7,30.44,South,180,0.0,0.0,89,0.00,,,0.00,WUHU216DAVISVP2,2013-11-06 09:57:00,
2013-11-06 05:02:00,36.6,33.9,30.44,South,180,0.0,0.0,90,0.00,,,0.00,WUHU216DAVISVP2,2013-11-06 10:02:00,
2013-11-06 05:07:00,36.6,33.9,30.44,South,180,0.0,0.0,90,0.00,,,0.00,WUHU216DAVISVP2,2013-11-06 10:07:00,
2013-11-06 05:12:00,36.6,33.9,30.44,South,180,0.0,0.0,90,0.00,,,0.00,WUHU216DAVISVP2,2013-11-06 10:12:00,
2013-11-06 05:17:00,36.7,34.0,30.44,South,180,0.0,0.0,90,0.00,,,0.00,WUHU216DAVISVP2,2013-11-06 10:17:00,
2013-11-06 05:22:00,36.7,34.0,30.44,South,180,0.0,0.0,90,0.00,,,0.00,WUHU216DAVISVP2,2013-11-06 10:22:00,
2013-11-06 05:27:00,36.8,34.1,30.44,South,180,0.0,0.0,90,0.00,,,0.00,WUHU216DAVISVP2,2013-11-06 10:27:00,
2013-11-06 05:32:00,36.8,34.4,30.44,South,180,0.0,0.0,91,0.00,,,0.00,WUHU216DAVISVP2,2013-11-06 10:32:00,
2013-11-06 05:37:00,36.9,34.5,30.44,South,180,0.0,0.0,91,0.00,,,0.00,WUHU216DAVISVP2,2013-11-06 10:37:00,
2013-11-06 05:42:00,37.0,34.6,30.44,South,180,0.0,0.0,91,0.00,,,0.00,WUHU216DAVISVP2,2013-11-06 10:42:00,
2013-11-06 05:47:00,37.2,34.8,30.44,South,180,0.0,0.0,91,0.00,,,0.00,WUHU216DAVISVP2,2013-11-06 10:47:00,
2013-11-06 05:52:00,37.2,34.5,30.44,South,180,0.0,0.0,90,0.00,,,0.00,WUHU216DAVISVP2,2013-11-06 10:52:00,
2013-11-06 05:57:00,37.2,34.5,30.43,South,180,0.0,0.0,90,0.00,,,0.00,WUHU216DAVISVP2,2013-11-06 10:57:00,
2013-11-06 06:02:00,37.2,34.5,30.43,South,180,0.0,1.0,90,0.00,,,0.00,WUHU216DAVISVP2,2013-11-06 11:02:00,
2013-11-06 06:07:00,37.3,34.6,30.43,South,180,0.0,1.0,90,0.00,,,0.00,WUHU216DAVISVP2,2013-11-06 11:07:00,
2013-11-06 06:12:00,37.4,35.0,30.43,South,180,0.0,1.0,91,0.00,,,0.00,WUHU216DAVISVP2,2013-11-06 11:12:00,
2013-11-06 06:17:00,37.6,35.2,30.42,South,180,0.0,1.0,91,0.00,,,0.00,WUHU216DAVISVP2,2013-11-06 11:17:00,
2013-11-06 06:22:00,37.7,35.0,30.43,South,180,0.0,1.0,90,0.00,,,0.00,WUHU216DAVISVP2,2013-11-06 11:22:00,
2013-11-06 06:27:00,37.8,35.1,30.43,South,180,0.0,2.0,90,0.00,,,0.00,WUHU216DAVISVP2,2013-11-06 11:27:00,
2013-11-06 06:32:00,37.8,35.1,30.43,South,180,0.0,2.0,90,0.00,,,0.00,WUHU216DAVISVP2,2013-11-06 11:32:00,
2013-11-06 06:37:00,38.0,35.3,30.42,South,180,0.0,2.0,90,0.00,,,0.00,WUHU216DAVISVP2,2013-11-06 11:37:00,
2013-11-06 06:42:00,38.3,35.6,30.42,South,180,1.0,2.0,90,0.00,,,0.00,WUHU216DAVISVP2,2013-11-06 11:42:00,
2013-11-06 06:47:00,38.5,35.8,30.42,South,180,0.0,2.0,90,0.00,,,0.00,WUHU216DAVISVP2,2013-11-06 11:47:00,
2013-11-06 06:52:00,38.7,36.0,30.42,South,180,0.0,2.0,90,0.00,,,0.00,WUHU216DAVISVP2,2013-11-06 11:52:00,
2013-11-06 06:57:00,38.9,36.2,30.42,South,180,0.0,2.0,90,0.00,,,0.00,WUHU216DAVISVP2,2013-11-06 11:57:00,
2013-11-06 07:02:00,39.1,36.1,30.42,South,180,0.0,1.0,89,0.00,,,0.00,WUHU216DAVISVP2,2013-11-06 12:02:00,
2013-11-06 07:07:00,39.2,36.2,30.41,South,180,0.0,1.0,89,0.00,,,0.00,WUHU216DAVISVP2,2013-11-06 12:07:00,
2013-11-06 07:12:00,39.3,36.3,30.41,South,180,0.0,1.0,89,0.00,,,0.00,WUHU216DAVISVP2,2013-11-06 12:12:00,
2013-11-06 07:17:00,39.6,36.6,30.41,South,180,0.0,1.0,89,0.00,,,0.00,WUHU216DAVISVP2,2013-11-06 12:17:00,
2013-11-06 07:22:00,39.8,36.8,30.41,South,180,0.0,0.0,89,0.00,,,0.00,WUHU216DAVISVP2,2013-11-06 12:22:00,
2013-11-06 07:27:00,39.9,36.9,30.41,South,180,0.0,0.0,89,0.00,,,0.00,WUHU216DAVISVP2,2013-11-06 12:27:00,
2013-11-06 07:32:00,40.0,37.0,30.41,South,180,0.0,0.0,89,0.00,,,0.00,WUHU216DAVISVP2,2013-11-06 12:32:00,
2013-11-06 07:37:00,40.1,37.1,30.41,South,180,0.0,0.0,89,0.00,,,0.00,WUHU216DAVISVP2,2013-11-06 12:37:00,
2013-11-06 07:42:00,40.2,36.9,30.41,South,180,0.0,0.0,88,0.00,,,0.00,WUHU216DAVISVP2,2013-11-06 12:42:00,
2013-11-06 07:47:00,40.4,37.1,30.41,South,180,0.0,0.0,88,0.00,,,0.00,WUHU216DAVISVP2,2013-11-06 12:47:00,
2013-11-06 07:52:00,40.7,37.7,30.40,South,180,0.0,0.0,89,0.00,,,0.00,WUHU216DAVISVP2,2013-11-06 12:52:00,
2013-11-06 07:57:00,41.3,38.0,30.40,South,180,0.0,0.0,88,0.00,,,0.00,WUHU216DAVISVP2,2013-11-06 12:57:00,
2013-11-06 08:02:00,41.8,38.2,30.41,South,180,0.0,0.0,87,0.00,,,0.00,WUHU216DAVISVP2,2013-11-06 13:02:00,
2013-11-06 08:07:00,42.2,38.6,30.41,South,180,0.0,2.0,87,0.00,,,0.00,WUHU216DAVISVP2,2013-11-06 13:07:00,
2013-11-06 08:12:00,42.5,38.6,30.41,South,180,1.0,2.0,86,0.00,,,0.00,WUHU216DAVISVP2,2013-11-06 13:12:00,
2013-11-06 08:17:00,43.0,39.1,30.41,South,180,1.0,2.0,86,0.00,,,0.00,WUHU216DAVISVP2,2013-11-06 13:17:00,
2013-11-06 08:22:00,43.7,39.5,30.40,South,180,0.0,3.0,85,0.00,,,0.00,WUHU216DAVISVP2,2013-11-06 13:22:00,
2013-11-06 08:27:00,44.4,39.9,30.40,South,180,1.0,3.0,84,0.00,,,0.00,WUHU216DAVISVP2,2013-11-06 13:27:00,
2013-11-06 08:32:00,45.0,40.5,30.39,South,180,4.0,4.0,84,0.00,,,0.00,WUHU216DAVISVP2,2013-11-06 13:32:00,
2013-11-06 08:37:00,45.7,40.8,30.39,South,180,0.0,5.0,83,0.00,,,0.00,WUHU216DAVISVP2,2013-11-06 13:37:00,
2013-11-06 08:42:00,46.2,41.0,30.39,South,180,3.0,5.0,82,0.00,,,0.00,WUHU216DAVISVP2,2013-11-06 13:42:00,
2013-11-06 08:47:00,46.6,41.4,30.39,South,180,0.0,5.0,82,0.00,,,0.00,WUHU216DAVISVP2,2013-11-06 13:47:00,
2013-11-06 08:52:00,46.8,41.3,30.38,South,180,1.0,5.0,81,0.00,,,0.00,WUHU216DAVISVP2,2013-11-06 13:52:00,
2013-11-06 08:57:00,47.0,41.5,30.38,South,178,2.0,6.0,81,0.00,,,0.00,WUHU216DAVISVP2,2013-11-06 13:57:00,
2013-11-06 09:02:00,47.7,41.9,30.38,South,178,2.0,6.0,80,0.00,,,0.00,WUHU216DAVISVP2,2013-11-06 14:02:00,
2013-11-06 09:07:00,48.3,42.1,30.38,South,178,1.0,6.0,79,0.00,,,0.00,WUHU216DAVISVP2,2013-11-06 14:07:00,
2013-11-06 09:12:00,49.1,43.2,30.37,South,178,2.0,5.0,80,0.00,,,0.00,WUHU216DAVISVP2,2013-11-06 14:12:00,
2013-11-06 09:17:00,49.4,42.5,30.37,SSE,166,7.0,10.0,77,0.00,,,0.00,WUHU216DAVISVP2,2013-11-06 14:17:00,
2013-11-06 09:22:00,49.1,42.2,30.38,South,171,4.0,10.0,77,0.00,,,0.00,WUHU216DAVISVP2,2013-11-06 14:22:00,
2013-11-06 09:27:00,49.0,42.5,30.37,SSW,206,5.0,10.0,78,0.00,,,0.00,WUHU216DAVISVP2,2013-11-06 14:27:00,
2013-11-06 09:32:00,49.3,42.8,30.37,SSW,193,0.0,10.0,78,0.00,,,0.00,WUHU216DAVISVP2,2013-11-06 14:32:00,
2013-11-06 09:37:00,49.6,43.1,30.37,South,171,5.0,14.0,78,0.00,,,0.00,WUHU216DAVISVP2,2013-11-06 14:37:00,
2013-11-06 09:42:00,50.0,43.5,30.36,SSE,164,0.0,14.0,78,0.00,,,0.00,WUHU216DAVISVP2,2013-11-06 14:42:00,
2013-11-06 09:47:00,50.5,43.6,30.36,South,175,4.0,14.0,77,0.00,,,0.00,WUHU216DAVISVP2,2013-11-06 14:47:00,
2013-11-06 09:52:00,50.6,43.3,30.36,South,175,6.0,14.0,76,0.00,,,0.00,WUHU216DAVISVP2,2013-11-06 14:52:00,
2013-11-06 09:57:00,50.8,43.5,30.35,SSW,202,4.0,13.0,76,0.00,,,0.00,WUHU216DAVISVP2,2013-11-06 14:57:00,
2013-11-06 10:02:00,51.2,44.3,30.35,South,183,3.0,13.0,77,0.00,,,0.00,WUHU216DAVISVP2,2013-11-06 15:02:00,
2013-11-06 10:07:00,51.4,44.2,30.35,SSW,199,4.0,13.0,76,0.00,,,0.00,WUHU216DAVISVP2,2013-11-06 15:07:00,
2013-11-06 10:12:00,51.6,44.4,30.35,South,186,4.0,9.0,76,0.00,,,0.00,WUHU216DAVISVP2,2013-11-06 15:12:00,
2013-11-06 10:17:00,51.8,44.2,30.34,South,171,6.0,8.0,75,0.00,,,0.00,WUHU216DAVISVP2,2013-11-06 15:17:00,
2013-11-06 10:22:00,52.0,44.4,30.34,South,179,3.0,8.0,75,0.00,,,0.00,WUHU216DAVISVP2,2013-11-06 15:22:00,
2013-11-06 10:27:00,52.3,44.3,30.34,South,169,5.0,9.0,74,0.00,,,0.00,WUHU216DAVISVP2,2013-11-06 15:27:00,
2013-11-06 10:32:00,52.5,44.4,30.34,SSE,160,2.0,9.0,74,0.00,,,0.00,WUHU216DAVISVP2,2013-11-06 15:32:00,
2013-11-06 10:37:00,52.8,44.7,30.34,SW,227,1.0,9.0,74,0.00,,,0.00,WUHU216DAVISVP2,2013-11-06 15:37:00,
2013-11-06 10:42:00,53.2,44.8,30.33,South,171,6.0,9.0,73,0.00,,,0.00,WUHU216DAVISVP2,2013-11-06 15:42:00,
2013-11-06 10:47:00,53.4,45.0,30.33,SSW,208,0.0,8.0,73,0.00,,,0.00,WUHU216DAVISVP2,2013-11-06 15:47:00,
2013-11-06 10:52:00,53.7,44.5,30.33,South,171,4.0,9.0,71,0.00,,,0.00,WUHU216DAVISVP2,2013-11-06 15:52:00,
2013-11-06 10:57:00,54.2,45.5,30.33,SSE,162,7.0,9.0,72,0.00,,,0.00,WUHU216DAVISVP2,2013-11-06 15:57:00,
2013-11-06 11:02:00,55.0,45.9,30.32,SE,132,7.0,9.0,71,0.00,,,0.00,WUHU216DAVISVP2,2013-11-06 16:02:00,
2013-11-06 11:07:00,55.2,45.7,30.32,SSE,155,2.0,11.0,70,0.00,,,0.00,WUHU216DAVISVP2,2013-11-06 16:07:00,
2013-11-06 11:12:00,55.5,45.6,30.31,SSE,158,2.0,14.0,69,0.00,,,0.00,WUHU216DAVISVP2,2013-11-06 16:12:00,
2013-11-06 11:17:00,55.9,45.6,30.30,SSE,162,4.0,14.0,68,0.00,,,0.00,WUHU216DAVISVP2,2013-11-06 16:17:00,
2013-11-06 11:22:00,56.3,46.0,30.30,South,190,5.0,14.0,68,0.00,,,0.00,WUHU216DAVISVP2,2013-11-06 16:22:00,
2013-11-06 11:27:00,56.7,46.0,30.29,South,180,4.0,14.0,67,0.00,,,0.00,WUHU216DAVISVP2,2013-11-06 16:27:00,
2013-11-06 11:32:00,57.3,46.2,30.29,SSW,211,7.0,14.0,66,0.00,,,0.00,WUHU216DAVISVP2,2013-11-06 16:32:00,
2013-11-06 11:37:00,57.2,45.3,30.29,SSW,201,9.0,16.0,64,0.00,,,0.00,WUHU216DAVISVP2,2013-11-06 16:37:00,
2013-11-06 11:42:00,56.9,45.8,30.29,South,183,9.0,16.0,66,0.00,,,0.00,WUHU216DAVISVP2,2013-11-06 16:42:00,
2013-11-06 11:47:00,56.9,46.2,30.28,SSE,150,9.0,15.0,67,0.00,,,0.00,WUHU216DAVISVP2,2013-11-06 16:47:00,
2013-11-06 11:52:00,57.1,45.6,30.28,SE,146,9.0,15.0,65,0.00,,,0.00,WUHU216DAVISVP2,2013-11-06 16:52:00,
2013-11-06 11:57:00,57.3,45.8,30.27,SSW,196,5.0,14.0,65,0.00,,,0.00,WUHU216DAVISVP2,2013-11-06 16:57:00,
2013-11-06 12:02:00,57.4,45.9,30.27,SSW,204,8.0,14.0,65,0.00,,,0.00,WUHU216DAVISVP2,2013-11-06 17:02:00,
2013-11-06 12:07:00,57.4,45.7,30.27,SSW,205,7.0,14.0,65,0.00,,,0.00,WUHU216DAVISVP2,2013-11-06 17:07:00,
2013-11-06 12:12:00,57.6,45.9,30.26,South,178,9.0,14.0,65,0.00,,,0.00,WUHU216DAVISVP2,2013-11-06 17:12:00,
2013-11-06 12:17:00,57.4,45.7,30.26,SSW,198,8.0,15.0,65,0.00,,,0.00,WUHU216DAVISVP2,2013-11-06 17:17:00,
2013-11-06 12:22:00,58.2,46.9,30.25,South,178,5.0,15.0,66,0.00,,,0.00,WUHU216DAVISVP2,2013-11-06 17:22:00,
2013-11-06 12:27:00,58.2,45.7,30.25,South,175,12.0,17.0,63,0.00,,,0.00,WUHU216DAVISVP2,2013-11-06 17:27:00,
2013-11-06 12:32:00,58.2,46.2,30.25,South,175,9.0,17.0,64,0.00,,,0.00,WUHU216DAVISVP2,2013-11-06 17:32:00,
2013-11-06 12:37:00,58.3,45.9,30.25,SSE,159,13.0,18.0,63,0.00,,,0.00,WUHU216DAVISVP2,2013-11-06 17:37:00,
2013-11-06 12:42:00,58.3,46.3,30.25,South,175,4.0,18.0,64,0.00,,,0.00,WUHU216DAVISVP2,2013-11-06 17:42:00,
2013-11-06 12:47:00,58.9,46.0,30.25,SSW,194,6.0,17.0,62,0.00,,,0.00,WUHU216DAVISVP2,2013-11-06 17:47:00,
2013-11-06 12:52:00,59.5,46.6,30.25,SSW,208,9.0,17.0,62,0.00,,,0.00,WUHU216DAVISVP2,2013-11-06 17:52:00,
2013-11-06 12:57:00,59.5,46.2,30.25,SSE,161,12.0,17.0,61,0.00,,,0.00,WUHU216DAVISVP2,2013-11-06 17:57:00,
2013-11-06 13:02:00,59.3,46.0,30.25,SSW,209,5.0,17.0,61,0.00,,,0.00,WUHU216DAVISVP2,2013-11-06 18:02:00,
2013-11-06 13:07:00,59.3,45.8,30.24,South,172,7.0,17.0,61,0.00,,,0.00,WUHU216DAVISVP2,2013-11-06 18:07:00,
2013-11-06 13:12:00,59.9,46.0,30.24,SSW,205,4.0,17.0,60,0.00,,,0.00,WUHU216DAVISVP2,2013-11-06 18:12:00,
2013-11-06 13:17:00,60.2,46.4,30.23,SW,218,1.0,16.0,60,0.00,,,0.00,WUHU216DAVISVP2,2013-11-06 18:17:00,
2013-11-06 13:22:00,60.6,46.3,30.22,SSE,162,13.0,16.0,59,0.00,,,0.00,WUHU216DAVISVP2,2013-11-06 18:22:00,
2013-11-06 13:27:00,60.6,46.3,30.22,South,175,9.0,15.0,59,0.00,,,0.00,WUHU216DAVISVP2,2013-11-06 18:27:00,
2013-11-06 13:32:00,60.2,45.5,30.21,South,180,5.0,17.0,58,0.00,,,0.00,WUHU216DAVISVP2,2013-11-06 18:32:00,
2013-11-06 13:37:00,60.4,45.5,30.21,SSW,211,3.0,17.0,58,0.00,,,0.00,WUHU216DAVISVP2,2013-11-06 18:37:00,
2013-11-06 13:42:00,60.9,45.6,30.20,SSW,211,7.0,16.0,57,0.00,,,0.00,WUHU216DAVISVP2,2013-11-06 18:42:00,
2013-11-06 13:47:00,61.1,45.4,30.20,SSW,202,3.0,16.0,56,0.00,,,0.00,WUHU216DAVISVP2,2013-11-06 18:47:00,
2013-11-06 13:52:00,60.9,44.7,30.21,South,180,15.0,16.0,55,0.00,,,0.00,WUHU216DAVISVP2,2013-11-06 18:52:00,
2013-11-06 13:57:00,60.7,45.5,30.20,SSW,197,0.0,16.0,57,0.00,,,0.00,WUHU216DAVISVP2,2013-11-06 18:57:00,
2013-11-06 14:02:00,60.9,45.2,30.20,SSW,197,5.0,16.0,56,0.00,,,0.00,WUHU216DAVISVP2,2013-11-06 19:02:00,
2013-11-06 14:07:00,60.9,46.1,30.20,SSW,212,10.0,16.0,58,0.00,,,0.00,WUHU216DAVISVP2,2013-11-06 19:07:00,
2013-11-06 14:12:00,60.8,45.6,30.20,SSW,195,5.0,13.0,57,0.00,,,0.00,WUHU216DAVISVP2,2013-11-06 19:12:00,
2013-11-06 14:17:00,61.0,45.8,30.20,South,185,4.0,13.0,57,0.00,,,0.00,WUHU216DAVISVP2,2013-11-06 19:17:00,
2013-11-06 14:22:00,61.1,45.9,30.20,SSW,195,5.0,11.0,57,0.00,,,0.00,WUHU216DAVISVP2,2013-11-06 19:22:00,
2013-11-06 14:27:00,61.2,45.5,30.20,South,189,4.0,11.0,56,0.00,,,0.00,WUHU216DAVISVP2,2013-11-06 19:27:00,
2013-11-06 14:32:00,61.2,45.5,30.20,SSW,207,3.0,10.0,56,0.00,,,0.00,WUHU216DAVISVP2,2013-11-06 19:32:00,
2013-11-06 14:37:00,61.1,45.4,30.20,SSE,167,5.0,12.0,56,0.00,,,0.00,WUHU216DAVISVP2,2013-11-06 19:37:00,
2013-11-06 14:42:00,61.0,45.3,30.19,South,180,4.0,14.0,56,0.00,,,0.00,WUHU216DAVISVP2,2013-11-06 19:42:00,
2013-11-06 14:47:00,60.8,45.1,30.19,SSW,206,8.0,18.0,56,0.00,,,0.00,WUHU216DAVISVP2,2013-11-06 19:47:00,
2013-11-06 14:52:00,60.6,44.9,30.19,South,190,6.0,18.0,56,0.00,,,0.00,WUHU216DAVISVP2,2013-11-06 19:52:00,
2013-11-06 14:57:00,60.5,45.3,30.19,SE,134,12.0,16.0,57,0.00,,,0.00,WUHU216DAVISVP2,2013-11-06 19:57:00,
2013-11-06 15:02:00,60.6,45.4,30.19,SSE,157,7.0,16.0,57,0.00,,,0.00,WUHU216DAVISVP2,2013-11-06 20:02:00,
2013-11-06 15:07:00,60.3,45.1,30.19,SSE,167,6.0,15.0,57,0.00,,,0.00,WUHU216DAVISVP2,2013-11-06 20:07:00,
2013-11-06 15:12:00,60.3,44.6,30.18,South,170,7.0,14.0,56,0.00,,,0.00,WUHU216DAVISVP2,2013-11-06 20:12:00,
2013-11-06 15:17:00,60.1,44.9,30.19,South,184,5.0,15.0,57,0.00,,,0.00,WUHU216DAVISVP2,2013-11-06 20:17:00,
2013-11-06 15:22:00,60.1,44.9,30.19,SSE,165,5.0,15.0,57,0.00,,,0.00,WUHU216DAVISVP2,2013-11-06 20:22:00,
2013-11-06 15:27:00,60.0,44.3,30.18,SSW,201,5.0,17.0,56,0.00,,,0.00,WUHU216DAVISVP2,2013-11-06 20:27:00,
2013-11-06 15:32:00,59.7,44.4,30.18,SSE,165,6.0,17.0,57,0.00,,,0.00,WUHU216DAVISVP2,2013-11-06 20:32:00,
2013-11-06 15:37:00,59.4,44.6,30.18,SSW,192,1.0,15.0,58,0.00,,,0.00,WUHU216DAVISVP2,2013-11-06 20:37:00,
2013-11-06 15:42:00,59.1,44.3,30.18,South,173,7.0,15.0,58,0.00,,,0.00,WUHU216DAVISVP2,2013-11-06 20:42:00,
2013-11-06 15:47:00,58.6,44.3,30.18,SSE,168,9.0,12.0,59,0.00,,,0.00,WUHU216DAVISVP2,2013-11-06 20:47:00,
2013-11-06 15:52:00,58.4,44.1,30.18,SSE,168,4.0,12.0,59,0.00,,,0.00,WUHU216DAVISVP2,2013-11-06 20:52:00,
2013-11-06 15:57:00,58.3,44.0,30.18,South,169,6.0,12.0,59,0.00,,,0.00,WUHU216DAVISVP2,2013-11-06 20:57:00,
2013-11-06 16:02:00,58.2,43.9,30.19,South,184,6.0,12.0,59,0.00,,,0.00,WUHU216DAVISVP2,2013-11-06 21:02:00,
2013-11-06 16:07:00,58.0,44.2,30.18,SSW,193,2.0,12.0,60,0.00,,,0.00,WUHU216DAVISVP2,2013-11-06 21:07:00,
2013-11-06 16:12:00,57.8,44.0,30.18,South,169,4.0,11.0,60,0.00,,,0.00,WUHU216DAVISVP2,2013-11-06 21:12:00,
2013-11-06 16:17:00,57.7,43.9,30.18,South,186,5.0,8.0,60,0.00,,,0.00,WUHU216DAVISVP2,2013-11-06 21:17:00,
2013-11-06 16:22:00,57.7,43.9,30.18,South,170,4.0,9.0,60,0.00,,,0.00,WUHU216DAVISVP2,2013-11-06 21:22:00,
2013-11-06 16:27:00,57.7,44.3,30.18,SSW,193,2.0,9.0,61,0.00,,,0.00,WUHU216DAVISVP2,2013-11-06 21:27:00,
2013-11-06 16:32:00,57.5,44.1,30.18,South,186,5.0,8.0,61,0.00,,,0.00,WUHU216DAVISVP2,2013-11-06 21:32:00,
2013-11-06 16:37:00,57.4,44.1,30.17,SSE,168,6.0,8.0,61,0.00,,,0.00,WUHU216DAVISVP2,2013-11-06 21:37:00,
2013-11-06 16:42:00,57.3,44.5,30.17,South,178,2.0,8.0,62,0.00,,,0.00,WUHU216DAVISVP2,2013-11-06 21:42:00,
2013-11-06 16:47:00,57.3,44.5,30.17,South,171,6.0,10.0,62,0.00,,,0.00,WUHU216DAVISVP2,2013-11-06 21:47:00,
2013-11-06 16:52:00,57.3,44.5,30.17,South,181,4.0,12.0,62,0.00,,,0.00,WUHU216DAVISVP2,2013-11-06 21:52:00,
2013-11-06 16:57:00,57.3,44.5,30.17,SSE,166,4.0,12.0,62,0.00,,,0.00,WUHU216DAVISVP2,2013-11-06 21:57:00,
2013-11-06 17:02:00,57.2,44.4,30.18,South,169,7.0,11.0,62,0.00,,,0.00,WUHU216DAVISVP2,2013-11-06 22:02:00,
2013-11-06 17:07:00,57.2,44.4,30.17,South,175,2.0,9.0,62,0.00,,,0.00,WUHU216DAVISVP2,2013-11-06 22:07:00,
2013-11-06 17:12:00,57.1,44.3,30.17,South,186,4.0,11.0,62,0.00,,,0.00,WUHU216DAVISVP2,2013-11-06 22:12:00,
2013-11-06 17:17:00,56.9,44.1,30.17,SSE,163,7.0,11.0,62,0.00,,,0.00,WUHU216DAVISVP2,2013-11-06 22:17:00,
2013-11-06 17:22:00,56.8,44.5,30.17,SSE,165,2.0,10.0,63,0.00,,,0.00,WUHU216DAVISVP2,2013-11-06 22:22:00,
2013-11-06 17:27:00,56.6,44.3,30.17,SSE,168,4.0,11.0,63,0.00,,,0.00,WUHU216DAVISVP2,2013-11-06 22:27:00,
2013-11-06 17:32:00,56.4,44.1,30.17,South,179,4.0,11.0,63,0.00,,,0.00,WUHU216DAVISVP2,2013-11-06 22:32:00,
2013-11-06 17:37:00,56.4,44.5,30.17,South,174,7.0,10.0,64,0.00,,,0.00,WUHU216DAVISVP2,2013-11-06 22:37:00,
2013-11-06 17:42:00,56.4,44.5,30.16,SSE,164,2.0,12.0,64,0.00,,,0.00,WUHU216DAVISVP2,2013-11-06 22:42:00,
2013-11-06 17:47:00,56.2,44.3,30.16,South,175,1.0,12.0,64,0.00,,,0.00,WUHU216DAVISVP2,2013-11-06 22:47:00,
2013-11-06 17:52:00,56.1,44.2,30.16,SSE,163,4.0,12.0,64,0.00,,,0.00,WUHU216DAVISVP2,2013-11-06 22:52:00,
2013-11-06 17:57:00,56.0,44.5,30.16,SSE,159,6.0,10.0,65,0.00,,,0.00,WUHU216DAVISVP2,2013-11-06 22:57:00,
2013-11-06 18:02:00,55.9,44.4,30.16,SSE,167,0.0,10.0,65,0.00,,,0.00,WUHU216DAVISVP2,2013-11-06 23:02:00,
2013-11-06 18:07:00,55.7,44.2,30.16,South,173,0.0,9.0,65,0.00,,,0.00,WUHU216DAVISVP2,2013-11-06 23:07:00,
2013-11-06 18:12:00,55.6,44.5,30.16,SSE,164,5.0,9.0,66,0.00,,,0.00,WUHU216DAVISVP2,2013-11-06 23:12:00,
2013-11-06 18:17:00,55.5,44.5,30.16,SSE,159,5.0,8.0,66,0.00,,,0.00,WUHU216DAVISVP2,2013-11-06 23:17:00,
2013-11-06 18:22:00,55.5,44.5,30.15,SSE,168,5.0,8.0,66,0.00,,,0.00,WUHU216DAVISVP2,2013-11-06 23:22:00,
2013-11-06 18:27:00,55.4,44.4,30.16,SSW,194,1.0,8.0,66,0.00,,,0.00,WUHU216DAVISVP2,2013-11-06 23:27:00,
2013-11-06 18:32:00,55.2,44.6,30.15,South,169,7.0,10.0,67,0.00,,,0.00,WUHU216DAVISVP2,2013-11-06 23:32:00,
2013-11-06 18:37:00,55.1,44.5,30.15,SSE,167,6.0,10.0,67,0.00,,,0.00,WUHU216DAVISVP2,2013-11-06 23:37:00,
2013-11-06 18:42:00,55.0,44.4,30.14,SSE,161,4.0,9.0,67,0.00,,,0.00,WUHU216DAVISVP2,2013-11-06 23:42:00,
2013-11-06 18:47:00,54.7,44.5,30.14,SSE,161,0.0,9.0,68,0.00,,,0.00,WUHU216DAVISVP2,2013-11-06 23:47:00,
2013-11-06 18:52:00,54.5,44.3,30.14,SSE,161,0.0,7.0,68,0.00,,,0.00,WUHU216DAVISVP2,2013-11-06 23:52:00,
2013-11-06 18:57:00,54.2,43.9,30.14,South,185,1.0,7.0,68,0.00,,,0.00,WUHU216DAVISVP2,2013-11-06 23:57:00,
2013-11-06 19:02:00,54.1,44.2,30.13,South,178,1.0,6.0,69,0.00,,,0.00,WUHU216DAVISVP2,2013-11-07 00:02:00,
2013-11-06 19:07:00,54.1,44.2,30.13,SSE,155,1.0,8.0,69,0.00,,,0.00,WUHU216DAVISVP2,2013-11-07 00:07:00,
2013-11-06 19:12:00,54.1,44.5,30.13,SSE,168,0.0,8.0,70,0.00,,,0.00,WUHU216DAVISVP2,2013-11-07 00:12:00,
2013-11-06 19:17:00,54.1,44.5,30.13,South,178,0.0,8.0,70,0.00,,,0.00,WUHU216DAVISVP2,2013-11-07 00:17:00,
2013-11-06 19:22:00,54.1,44.6,30.13,SSE,168,6.0,7.0,70,0.00,,,0.00,WUHU216DAVISVP2,2013-11-07 00:22:00,
2013-11-06 19:27:00,54.0,44.6,30.12,SSE,148,1.0,8.0,70,0.00,,,0.00,WUHU216DAVISVP2,2013-11-07 00:27:00,
2013-11-06 19:32:00,54.1,44.6,30.12,South,173,0.0,12.0,70,0.00,,,0.00,WUHU216DAVISVP2,2013-11-07 00:32:00,
2013-11-06 19:37:00,54.0,44.6,30.12,South,170,1.0,12.0,70,0.00,,,0.00,WUHU216DAVISVP2,2013-11-07 00:37:00,
2013-11-06 19:42:00,53.9,44.5,30.11,South,169,0.0,12.0,70,0.00,,,0.00,WUHU216DAVISVP2,2013-11-07 00:42:00,
2013-11-06 19:47:00,53.8,44.7,30.11,SE,144,0.0,12.0,71,0.00,,,0.00,WUHU216DAVISVP2,2013-11-07 00:47:00,
2013-11-06 19:52:00,53.8,44.7,30.10,SSE,155,2.0,12.0,71,0.00,,,0.00,WUHU216DAVISVP2,2013-11-07 00:52:00,
2013-11-06 19:57:00,53.7,45.0,30.10,SSE,159,6.0,12.0,72,0.00,,,0.00,WUHU216DAVISVP2,2013-11-07 00:57:00,
2013-11-06 20:02:00,53.5,44.8,30.10,SSE,157,3.0,11.0,72,0.00,,,0.00,WUHU216DAVISVP2,2013-11-07 01:02:00,
2013-11-06 20:07:00,53.5,44.8,30.10,SE,126,2.0,11.0,72,0.00,,,0.00,WUHU216DAVISVP2,2013-11-07 01:07:00,
2013-11-06 20:12:00,53.4,45.1,30.10,SE,143,1.0,8.0,73,0.00,,,0.00,WUHU216DAVISVP2,2013-11-07 01:12:00,
2013-11-06 20:17:00,53.4,45.1,30.10,SSE,158,2.0,9.0,73,0.00,,,0.00,WUHU216DAVISVP2,2013-11-07 01:17:00,
2013-11-06 20:22:00,53.4,45.4,30.10,SSE,158,1.0,9.0,74,0.00,,,0.00,WUHU216DAVISVP2,2013-11-07 01:22:00,
2013-11-06 20:27:00,53.4,45.8,30.10,SSE,151,5.0,15.0,75,0.00,,,0.00,WUHU216DAVISVP2,2013-11-07 01:27:00,
2013-11-06 20:32:00,53.4,45.8,30.09,SSE,158,6.0,15.0,75,0.00,,,0.00,WUHU216DAVISVP2,2013-11-07 01:32:00,
2013-11-06 20:37:00,53.3,46.0,30.09,SSE,157,6.0,13.0,76,0.00,,,0.00,WUHU216DAVISVP2,2013-11-07 01:37:00,
2013-11-06 20:42:00,53.4,46.1,30.09,SSE,166,5.0,13.0,76,0.00,,,0.00,WUHU216DAVISVP2,2013-11-07 01:42:00,
2013-11-06 20:47:00,53.4,46.4,30.09,SSE,165,5.0,9.0,77,0.00,,,0.00,WUHU216DAVISVP2,2013-11-07 01:47:00,
2013-11-06 20:52:00,53.4,46.8,30.08,South,169,0.0,11.0,78,0.00,,,0.00,WUHU216DAVISVP2,2013-11-07 01:52:00,
2013-11-06 20:57:00,53.6,47.0,30.08,SE,144,3.0,11.0,78,0.00,,,0.00,WUHU216DAVISVP2,2013-11-07 01:57:00,
2013-11-06 21:02:00,53.6,47.0,30.08,SSE,165,5.0,11.0,78,0.00,,,0.00,WUHU216DAVISVP2,2013-11-07 02:02:00,
2013-11-06 21:07:00,53.6,47.3,30.08,South,178,5.0,12.0,79,0.00,,,0.00,WUHU216DAVISVP2,2013-11-07 02:07:00,
2013-11-06 21:12:00,53.6,47.3,30.08,South,170,4.0,12.0,79,0.00,,,0.00,WUHU216DAVISVP2,2013-11-07 02:12:00,
2013-11-06 21:17:00,53.5,47.2,30.08,South,169,5.0,11.0,79,0.00,,,0.00,WUHU216DAVISVP2,2013-11-07 02:17:00,
2013-11-06 21:22:00,53.5,47.2,30.07,SSE,168,4.0,11.0,79,0.00,,,0.00,WUHU216DAVISVP2,2013-11-07 02:22:00,
2013-11-06 21:27:00,53.3,47.3,30.07,South,169,6.0,10.0,80,0.00,,,0.00,WUHU216DAVISVP2,2013-11-07 02:27:00,
2013-11-06 21:32:00,53.3,47.3,30.06,SSE,163,6.0,14.0,80,0.00,,,0.00,WUHU216DAVISVP2,2013-11-07 02:32:00,
2013-11-06 21:37:00,53.3,47.6,30.06,South,178,6.0,14.0,81,0.00,,,0.00,WUHU216DAVISVP2,2013-11-07 02:37:00,
2013-11-06 21:42:00,53.3,47.6,30.06,SSE,163,6.0,15.0,81,0.00,,,0.00,WUHU216DAVISVP2,2013-11-07 02:42:00,
2013-11-06 21:47:00,53.4,47.7,30.06,South,180,4.0,15.0,81,0.00,,,0.00,WUHU216DAVISVP2,2013-11-07 02:47:00,
2013-11-06 21:52:00,53.4,48.1,30.06,SSW,194,2.0,14.0,82,0.00,,,0.00,WUHU216DAVISVP2,2013-11-07 02:52:00,
2013-11-06 21:57:00,53.4,48.1,30.06,SSW,192,8.0,14.0,82,0.00,,,0.00,WUHU216DAVISVP2,2013-11-07 02:57:00,
2013-11-06 22:02:00,53.4,48.1,30.07,SSW,206,0.0,10.0,82,0.00,,,0.00,WUHU216DAVISVP2,2013-11-07 03:02:00,
2013-11-06 22:07:00,53.4,48.1,30.06,SSW,196,4.0,10.0,82,0.00,,,0.00,WUHU216DAVISVP2,2013-11-07 03:07:00,
2013-11-06 22:12:00,53.4,48.1,30.05,SSW,194,3.0,9.0,82,0.00,,,0.00,WUHU216DAVISVP2,2013-11-07 03:12:00,
2013-11-06 22:17:00,53.4,48.1,30.06,SSW,200,2.0,10.0,82,0.00,,,0.00,WUHU216DAVISVP2,2013-11-07 03:17:00,
2013-11-06 22:22:00,53.3,48.0,30.06,SSW,210,3.0,10.0,82,0.00,,,0.00,WUHU216DAVISVP2,2013-11-07 03:22:00,
2013-11-06 22:27:00,53.3,48.3,30.05,South,173,3.0,10.0,83,0.00,,,0.00,WUHU216DAVISVP2,2013-11-07 03:27:00,
2013-11-06 22:32:00,53.3,48.3,30.05,South,176,5.0,10.0,83,0.00,,,0.00,WUHU216DAVISVP2,2013-11-07 03:32:00,
2013-11-06 22:37:00,53.2,48.2,30.05,South,184,0.0,10.0,83,0.00,,,0.00,WUHU216DAVISVP2,2013-11-07 03:37:00,
2013-11-06 22:42:00,53.1,48.1,30.04,South,175,7.0,12.0,83,0.00,,,0.00,WUHU216DAVISVP2,2013-11-07 03:42:00,
2013-11-06 22:47:00,53.1,48.1,30.03,SSE,166,5.0,12.0,83,0.00,,,0.00,WUHU216DAVISVP2,2013-11-07 03:47:00,
2013-11-06 22:52:00,53.1,48.1,30.03,SSE,161,5.0,11.0,83,0.00,,,0.00,WUHU216DAVISVP2,2013-11-07 03:52:00,
2013-11-06 22:57:00,53.0,48.0,30.03,South,172,2.0,11.0,83,0.00,,,0.00,WUHU216DAVISVP2,2013-11-07 03:57:00,
2013-11-06 23:02:00,53.0,48.0,30.02,South,177,1.0,11.0,83,0.00,,,0.00,WUHU216DAVISVP2,2013-11-07 04:02:00,
2013-11-06 23:07:00,53.0,48.0,30.02,South,175,3.0,10.0,83,0.00,,,0.00,WUHU216DAVISVP2,2013-11-07 04:07:00,
2013-11-06 23:12:00,53.0,48.0,30.02,SSE,168,0.0,9.0,83,0.00,,,0.00,WUHU216DAVISVP2,2013-11-07 04:12:00,
2013-11-06 23:17:00,52.8,47.8,30.02,South,169,5.0,9.0,83,0.00,,,0.00,WUHU216DAVISVP2,2013-11-07 04:17:00,
2013-11-06 23:22:00,52.8,47.8,30.02,South,172,2.0,10.0,83,0.00,,,0.00,WUHU216DAVISVP2,2013-11-07 04:22:00,
2013-11-06 23:27:00,52.8,47.8,30.02,SSE,163,4.0,10.0,83,0.00,,,0.00,WUHU216DAVISVP2,2013-11-07 04:27:00,
2013-11-06 23:32:00,52.8,47.8,30.02,SSW,198,5.0,10.0,83,0.00,,,0.00,WUHU216DAVISVP2,2013-11-07 04:32:00,
2013-11-06 23:37:00,52.9,47.9,30.01,South,172,7.0,10.0,83,0.00,,,0.00,WUHU216DAVISVP2,2013-11-07 04:37:00,
2013-11-06 23:42:00,52.9,47.9,30.02,South,184,4.0,9.0,83,0.00,,,0.00,WUHU216DAVISVP2,2013-11-07 04:42:00,
2013-11-06 23:47:00,53.1,47.8,30.01,South,169,10.0,11.0,82,0.00,,,0.00,WUHU216DAVISVP2,2013-11-07 04:47:00,
2013-11-06 23:52:00,53.4,47.7,30.01,SSE,160,1.0,12.0,81,0.00,,,0.00,WUHU216DAVISVP2,2013-11-07 04:52:00,
2013-11-06 23:57:00,53.4,47.7,30.01,South,185,4.0,12.0,81,0.00,,,0.00,WUHU216DAVISVP2,2013-11-07 04:57:00,